Stündliche Wetter Bolshie Shestaki

Heute, 17 Januar, Sonntag

Zeit Temperatur Niederschläge Wind Luftdruck Luftfeuchtigkeit
00:00 -24°C° 0 mm 3 m/S 748 mmHg 92%
01:00 -24°C° 0 mm 3 m/S 748 mmHg 91%
02:00 -24°C° 0 mm 2 m/S 748 mmHg 90%
03:00 -24°C° 0 mm 2 m/S 749 mmHg 89%
04:00 -23°C° 0 mm 2 m/S 749 mmHg 88%
05:00 -23°C° 0 mm 2 m/S 749 mmHg 88%
06:00 -23°C° 0 mm 2 m/S 749 mmHg 89%
07:00 -23°C° 0 mm 2 m/S 749 mmHg 89%
08:00 -20°C° 0 mm 1 m/S 749 mmHg 90%
09:00 -19°C° 0 mm 1 m/S 750 mmHg 90%
10:00 -18°C° 0 mm 1 m/S 750 mmHg 89%
11:00 -16°C° 0 mm 1 m/S 750 mmHg 88%
12:00 -16°C° 0 mm 1 m/S 750 mmHg 88%
13:00 -15°C° 0 mm 1 m/S 750 mmHg 87%
14:00 -14°C° 0 mm 1 m/S 750 mmHg 86%
15:00 -14°C° 0 mm 1 m/S 751 mmHg 88%
16:00 -17°C° 0 mm 2 m/S 751 mmHg 90%
17:00 -18°C° 0 mm 2 m/S 751 mmHg 92%
18:00 -18°C° 0 mm 2 m/S 751 mmHg 92%
19:00 -19°C° 0 mm 2 m/S 751 mmHg 93%
20:00 -20°C° 0 mm 2 m/S 751 mmHg 94%
21:00 -18°C° 0 mm 1 m/S 751 mmHg 94%
22:00 -19°C° 0 mm 1 m/S 751 mmHg 94%
23:00 -19°C° 0 mm 1 m/S 752 mmHg 95%

Morgen, 18 Januar, Montag

Zeit Temperatur Niederschläge Wind Luftdruck Luftfeuchtigkeit
00:00 -19°C° 0 mm 1 m/S 752 mmHg 94%
01:00 -20°C° 0 mm 1 m/S 752 mmHg 94%
02:00 -20°C° 0 mm 1 m/S 752 mmHg 94%
03:00 -20°C° 0 mm 0 m/S 752 mmHg 94%
04:00 -20°C° 0 mm 0 m/S 752 mmHg 94%
05:00 -20°C° 0 mm 0 m/S 751 mmHg 94%
06:00 -20°C° 0 mm 0 m/S 752 mmHg 94%
07:00 -20°C° 0 mm 0 m/S 752 mmHg 94%
08:00 -20°C° 0 mm 0 m/S 752 mmHg 94%
09:00 -19°C° 0 mm 0 m/S 752 mmHg 91%
10:00 -18°C° 0 mm 0 m/S 752 mmHg 88%
11:00 -16°C° 0 mm 1 m/S 752 mmHg 85%
12:00 -15°C° 0 mm 1 m/S 752 mmHg 83%
13:00 -15°C° 0 mm 1 m/S 752 mmHg 81%
14:00 -14°C° 0 mm 1 m/S 751 mmHg 79%
15:00 -15°C° 0 mm 1 m/S 751 mmHg 82%
16:00 -16°C° 0 mm 1 m/S 751 mmHg 85%
17:00 -17°C° 0 mm 1 m/S 751 mmHg 88%
18:00 -18°C° 0 mm 1 m/S 751 mmHg 88%
19:00 -18°C° 0 mm 1 m/S 751 mmHg 87%
20:00 -18°C° 0 mm 1 m/S 751 mmHg 87%
21:00 -19°C° 0 mm 1 m/S 751 mmHg 87%
22:00 -19°C° 0 mm 1 m/S 751 mmHg 87%
23:00 -19°C° 0 mm 1 m/S 751 mmHg 87%

übermorgen, 19 Januar, Dienstag

Zeit Temperatur Niederschläge Wind Luftdruck Luftfeuchtigkeit
00:00 -19°C° 0 mm 1 m/S 751 mmHg 86%
01:00 -19°C° 0 mm 1 m/S 750 mmHg 86%
02:00 -21°C° 0 mm 2 m/S 750 mmHg 85%
03:00 -21°C° 0 mm 2 m/S 750 mmHg 85%
04:00 -21°C° 0 mm 2 m/S 750 mmHg 85%
05:00 -21°C° 0 mm 2 m/S 749 mmHg 85%
06:00 -21°C° 0 mm 2 m/S 749 mmHg 86%
07:00 -21°C° 0 mm 2 m/S 749 mmHg 86%
08:00 -21°C° 0 mm 2 m/S 749 mmHg 87%
09:00 -22°C° 0 mm 3 m/S 749 mmHg 86%
10:00 -19°C° 0 mm 3 m/S 749 mmHg 86%
11:00 -18°C° 0 mm 3 m/S 748 mmHg 85%
12:00 -17°C° 0 mm 3 m/S 748 mmHg 86%
13:00 -17°C° 0 mm 4 m/S 748 mmHg 86%
14:00 -16°C° 0 mm 4 m/S 747 mmHg 86%
15:00 -16°C° 0 mm 4 m/S 747 mmHg 88%
16:00 -16°C° 0 mm 4 m/S 747 mmHg 89%
17:00 -16°C° 0 mm 4 m/S 747 mmHg 91%
18:00 -16°C° 0.1 mm 4 m/S 747 mmHg 92%
19:00 -16°C° 0.1 mm 4 m/S 747 mmHg 92%
20:00 -16°C° 0.1 mm 4 m/S 747 mmHg 93%
21:00 -16°C° 0.1 mm 4 m/S 747 mmHg 93%
22:00 -15°C° 0.1 mm 4 m/S 747 mmHg 94%
23:00 -15°C° 0.1 mm 4 m/S 747 mmHg 94%

20 Januar, Mittwoch

Zeit Temperatur Niederschläge Wind Luftdruck Luftfeuchtigkeit
00:00 -15°C° 0.1 mm 4 m/S 747 mmHg 94%
01:00 -15°C° 0.1 mm 4 m/S 746 mmHg 94%
02:00 -14°C° 0.1 mm 4 m/S 746 mmHg 94%
03:00 -14°C° 0 mm 4 m/S 746 mmHg 94%
04:00 -14°C° 0 mm 4 m/S 746 mmHg 94%
05:00 -14°C° 0 mm 4 m/S 746 mmHg 94%
06:00 -14°C° 0 mm 4 m/S 746 mmHg 94%
07:00 -14°C° 0 mm 4 m/S 746 mmHg 94%
08:00 -14°C° 0 mm 4 m/S 746 mmHg 95%
09:00 -13°C° 0 mm 5 m/S 745 mmHg 94%
10:00 -11°C° 0 mm 5 m/S 745 mmHg 94%
11:00 -10°C° 0 mm 6 m/S 745 mmHg 93%
12:00 -10°C° 0.1 mm 6 m/S 745 mmHg 93%
13:00 -9°C° 0.1 mm 6 m/S 745 mmHg 94%
14:00 -8°C° 0.1 mm 6 m/S 744 mmHg 94%
15:00 -6°C° 0.3 mm 6 m/S 744 mmHg 94%
16:00 -6°C° 0.3 mm 6 m/S 744 mmHg 94%
17:00 -6°C° 0.3 mm 6 m/S 743 mmHg 95%
18:00 -5°C° 0.3 mm 6 m/S 743 mmHg 95%
19:00 -5°C° 0.3 mm 6 m/S 743 mmHg 95%
20:00 -4°C° 0.3 mm 5 m/S 743 mmHg 95%
21:00 -2°C° 0.5 mm 5 m/S 743 mmHg 96%
22:00 -2°C° 0.5 mm 5 m/S 743 mmHg 97%
23:00 -1°C° 0.5 mm 5 m/S 742 mmHg 97%

21 Januar, Donnerstag

Zeit Temperatur Niederschläge Wind Luftdruck Luftfeuchtigkeit
00:00 -1°C° 0.4 mm 5 m/S 742 mmHg 97%
01:00 -1°C° 0.4 mm 5 m/S 742 mmHg 97%
02:00 -1°C° 0.4 mm 5 m/S 742 mmHg 97%
03:00 -1°C° 0.4 mm 5 m/S 742 mmHg 96%
04:00 -1°C° 0.4 mm 4 m/S 742 mmHg 95%
05:00 -1°C° 0.4 mm 4 m/S 742 mmHg 95%
06:00 -1°C° 0.1 mm 4 m/S 742 mmHg 94%
07:00 -2°C° 0.1 mm 4 m/S 742 mmHg 93%
08:00 -2°C° 0.1 mm 4 m/S 742 mmHg 92%
09:00 -2°C° 0 mm 4 m/S 742 mmHg 92%
10:00 -2°C° 0 mm 4 m/S 742 mmHg 92%
11:00 -2°C° 0 mm 4 m/S 742 mmHg 93%
12:00 -1°C° 0 mm 4 m/S 742 mmHg 94%
13:00 -1°C° 0 mm 4 m/S 742 mmHg 96%
14:00 -1°C° 0 mm 4 m/S 742 mmHg 97%
15:00 -1°C° 0 mm 4 m/S 741 mmHg 96%
16:00 -1°C° 0 mm 4 m/S 741 mmHg 95%
17:00 -1°C° 0 mm 4 m/S 741 mmHg 94%
18:00 -1°C° 0 mm 5 m/S 740 mmHg 94%
19:00 -1°C° 0 mm 5 m/S 740 mmHg 95%
20:00 -1°C° 0 mm 5 m/S 740 mmHg 95%
21:00 -1°C° 0 mm 4 m/S 739 mmHg 94%
22:00 -2°C° 0 mm 4 m/S 739 mmHg 93%
23:00 -2°C° 0 mm 4 m/S 739 mmHg 92%

22 Januar, Freitag

Zeit Temperatur Niederschläge Wind Luftdruck Luftfeuchtigkeit
00:00 -2°C° 0 mm 4 m/S 739 mmHg 92%
01:00 -2°C° 0 mm 4 m/S 739 mmHg 93%
02:00 -2°C° 0 mm 4 m/S 739 mmHg 94%
03:00 -2°C° 0 mm 4 m/S 739 mmHg 94%
04:00 -2°C° 0 mm 4 m/S 739 mmHg 94%
05:00 -2°C° 0 mm 4 m/S 740 mmHg 94%
06:00 -3°C° 0 mm 4 m/S 740 mmHg 94%
07:00 -4°C° 0 mm 3 m/S 740 mmHg 94%
08:00 -4°C° 0 mm 3 m/S 740 mmHg 93%
09:00 -4°C° 0 mm 3 m/S 740 mmHg 93%
10:00 -2°C° 0 mm 3 m/S 740 mmHg 92%
11:00 -1°C° 0 mm 3 m/S 740 mmHg 91%
12:00 -1°C° 0 mm 3 m/S 740 mmHg 93%
13:00 0°C° 0 mm 3 m/S 740 mmHg 95%
14:00 0°C° 0 mm 3 m/S 740 mmHg 98%
15:00 0°C° 0 mm 3 m/S 740 mmHg 98%
16:00 0°C° 0 mm 3 m/S 739 mmHg 98%
17:00 0°C° 0 mm 3 m/S 739 mmHg 98%
18:00 0°C° 0 mm 3 m/S 739 mmHg 98%
19:00 0°C° 0 mm 3 m/S 739 mmHg 98%
20:00 0°C° 0 mm 3 m/S 738 mmHg 98%
21:00 0°C° 0 mm 3 m/S 738 mmHg 98%
22:00 0°C° 0 mm 3 m/S 738 mmHg 99%
23:00 0°C° 0 mm 3 m/S 738 mmHg 99%
Mehr zeigen

Wir brauchen deine Erlaubnis

Meteoprog und unser Service Anbieter werden persönliche Daten aufbewahren, so wie Cookies, Geräte Bezeichnung oder ähnliche Technologien von deinem Gerät und Prozess, so wie Persönliche Daten Inhalte und Werbungen, genauso wie social Media und den Verkehr zu analysieren.

  • Aufbewahrung und/oder Zugang zu deiner Geräte Informationen.

    Cookies, Geräte Bezeichnung oder andere Informationen, können aufbewahrt oder Zugang zu deinem Gerät erhalten, für den Grund, der oben angegeben wird.

  • Personalisierte Werbung und Inhalte, Messungen, Einblick in das Publikum und Produkt Entwicklung.

    Werbungen und Inhalte können personalisiert werden, basierend auf ein Profil. Mehr Daten können besser personalisierte Werbungen und Inhalte hinzufügen. Werbung und Inhalte können gezeigt und gemessen werden. Einblicke über das Publikum, welche die Werbung gesehen haben und den Inhalt, können abgeleitet werden. So wie Daten können genutzt werden, um es zu verbessern oder die Benutzer Erfahrung zu verbessern das System und die Software.

Wenn du “Ich stimme zu” klickst, erlaubst du uns, die Cookies zu benutzen die Geräte Bezeichnung, den Web oder ähnliche Technologien zu benutzen. Deine Settings, können in deinem Gerät bei deinem Browser geändert werden.

Für den bestimmten Zweck, berechtigten Interessen beruhen darauf, mehr als auf den Inhalt. Du kannst mehr darüber in unseren Privaten und Cookie Politik lesen.